Location: ????????
(60.5616°N, 46.8254°E)
Time: 14:31:31
(UTC+00:00)

Meteor 1-20 Rocket - Pass Details

Date: 18 February 2020
Orbit: 820 x 891 km, 81.2° (Epoch: 27 March)

Event Time Altitude Azimuth Distance (km) Brightness Sun altitude
Exits shadow 16:34:10 43° 107° (ESE) 1,161 4.4 -20.8°
Maximum altitude 16:34:36 43° 94° (E) 1,148 4.4 -20.9°
Drops below altitude 10° 16:39:50 10° 24° (NNE) 2,465 6.5 -21.5°
Sets 16:42:22 0° 18° (NNE) 3,414 7.3 -21.8°
